Location: Newark
(50.4348°N, 30.5552°E)
Time: 00:04:18
(UTC+00:00)

Altair - All Passes

Search period start: 20 January 2020 00:00
Search period end: 30 January 2020 00:00
Orbit: 1502 x 1682 km, 47.2° (Epoch: 19 January)

Date Brightness Start Highest point End Pass type
(mag) Time Alt. Az. Time Alt. Az. Time Alt. Az.
20 Jan - 05:57:16 10° SSE 06:03:25 18° SE 06:09:33 10° E daylight
20 Jan - 07:56:50 10° SW 08:06:19 47° SSE 08:15:47 10° E daylight
20 Jan - 10:00:21 10° WSW 10:10:29 73° S 10:20:28 10° E daylight
20 Jan - 12:05:01 10° W 12:15:04 68° SSW 12:24:50 10° ESE daylight
20 Jan - 14:09:57 10° W 14:18:52 38° SW 14:27:30 10° SSE daylight
20 Jan - 16:18:47 10° WSW 16:21:13 11° WSW 16:23:38 10° SW visible
21 Jan - 05:32:50 10° SSE 05:38:24 16° SE 05:43:59 10° E daylight
21 Jan - 07:31:50 10° SW 07:41:11 45° SSE 07:50:34 10° E daylight
21 Jan - 09:35:11 10° WSW 09:45:18 72° S 09:55:18 10° E daylight
21 Jan - 11:39:48 10° W 11:49:53 70° SSW 11:59:43 10° ESE daylight
21 Jan - 13:44:42 10° W 13:53:47 40° SW 14:02:36 10° SSE daylight
21 Jan - 15:52:29 10° W 15:56:15 13° WSW 15:59:59 10° SW visible
22 Jan - 05:08:31 10° SSE 05:13:24 15° SE 05:18:19 10° E visible
22 Jan - 07:06:50 10° SSW 07:16:04 43° SE 07:25:21 10° ENE daylight
22 Jan - 09:10:01 10° WSW 09:20:06 71° SSE 09:30:07 10° E daylight
22 Jan - 11:14:36 10° W 11:24:42 71° SSW 11:34:35 10° ESE daylight
22 Jan - 13:19:27 10° WNW 13:28:41 42° SW 13:37:40 10° SSE daylight
22 Jan - 15:26:35 10° W 15:31:16 14° SW 15:35:54 10° SSW visible
23 Jan - 04:44:23 10° SSE 04:48:24 13° ESE 04:52:28 10° E visible
23 Jan - 06:41:53 10° SSW 06:50:58 40° SE 07:00:07 10° E daylight
23 Jan - 08:44:51 10° WSW 08:54:54 70° SSE 09:04:55 10° E daylight
23 Jan - 10:49:23 10° W 10:59:31 72° S 11:09:26 10° ESE daylight
23 Jan - 12:54:12 10° WNW 13:03:35 45° SW 13:12:42 10° SE daylight
23 Jan - 15:00:53 10° W 15:06:17 16° SW 15:11:37 10° SSW visible
24 Jan - 04:20:35 10° SE 04:23:26 11° ESE 04:26:17 10° ESE visible
24 Jan - 06:16:56 10° SSW 06:25:53 38° SE 06:34:53 10° E daylight
24 Jan - 08:19:42 10° WSW 08:29:44 68° SSE 08:39:44 10° E daylight
24 Jan - 10:24:11 10° W 10:34:19 73° S 10:44:17 10° ESE daylight
24 Jan - 12:28:58 10° W 12:38:28 47° SSW 12:47:44 10° SE daylight
24 Jan - 14:35:17 10° W 14:41:17 18° SW 14:47:12 10° SSW daylight
25 Jan - 05:52:01 10° SSW 06:00:46 36° SE 06:09:37 10° E daylight
25 Jan - 07:54:34 10° WSW 08:04:33 66° SSE 08:14:33 10° E daylight
25 Jan - 09:58:58 10° W 10:09:07 74° S 10:19:08 10° ESE daylight
25 Jan - 12:03:44 10° W 12:13:21 50° SSW 12:22:43 10° SE daylight
25 Jan - 14:09:46 10° W 14:16:17 20° SW 14:22:43 10° S daylight
26 Jan - 05:27:09 10° SSW 05:35:42 33° SE 05:44:21 10° E daylight
26 Jan - 07:29:26 10° WSW 07:39:22 64° SSE 07:49:21 10° E daylight
26 Jan - 09:33:46 10° W 09:43:55 75° S 09:53:58 10° ESE daylight
26 Jan - 11:38:32 10° W 11:48:13 52° SSW 11:57:42 10° SE daylight
26 Jan - 13:44:19 10° W 13:51:16 22° SW 13:58:08 10° S daylight
27 Jan - 05:02:18 10° SSW 05:10:38 31° SE 05:19:04 10° E visible
27 Jan - 07:04:19 10° SW 07:14:12 63° SSE 07:24:09 10° E daylight
27 Jan - 09:08:35 10° W 09:18:43 75° S 09:28:47 10° E daylight
27 Jan - 11:13:19 10° W 11:23:05 54° SSW 11:32:40 10° SE daylight
27 Jan - 13:18:53 10° W 13:26:15 24° SW 13:33:29 10° S daylight
28 Jan - 04:37:30 10° S 04:45:34 29° SE 04:53:46 10° E visible
28 Jan - 06:39:13 10° SW 06:49:02 60° SSE 06:58:57 10° E daylight
28 Jan - 08:43:24 10° W 08:53:31 75° S 09:03:37 10° E daylight
28 Jan - 10:48:05 10° W 10:57:56 57° SSW 11:07:36 10° SE daylight
28 Jan - 12:53:32 10° W 13:01:13 26° SW 13:08:47 10° S daylight
29 Jan - 04:12:43 10° S 04:20:31 27° SE 04:28:26 10° E visible
29 Jan - 06:14:08 10° SW 06:23:53 58° SSE 06:33:45 10° E daylight
29 Jan - 08:18:12 10° W 08:28:19 76° S 08:38:26 10° E daylight
29 Jan - 10:22:53 10° W 10:32:47 59° SSW 10:42:32 10° SE daylight
29 Jan - 12:28:10 10° W 12:36:10 28° SW 12:44:02 10° S daylight
